This demonstration page uses our WeatherBlox Daily Observations layout. Learn more.

Left ArrowRight Arrow

38.80484, -77.04692

Hourly Observations for January 3, 2023

Temp ( °F °C ) Dew Point ( °F °C ) Humidity (%) Winds ( mph kmh ) Pressure ( in mb ) Visibility ( mi km ) Precip ( " mm )
12:52 am 00:52 Cloudy 52 11.1 48 8.9 86 86 S 6 9 30.07 1018 10 16 0.00 0.00
1:52 am 01:52 Cloudy 52 11.1 48 8.9 86 86 S 7 11 30.07 1018 10 16 0.00 0.00
2:52 am 02:52 Cloudy 55 12.8 50 10 83 83 SSW 6 9 30.08 1019 10 16 0.00 0.00
3:52 am 03:52 Cloudy 53 11.7 49 9.4 86 86 SSW 7 11 30.06 1018 10 16 0.00 0.00
4:52 am 04:52 Mostly Cloudy 53 11.7 49 9.4 86 86 S 7 11 30.04 1017 10 16 0.00 0.00
5:52 am 05:52 Mostly Cloudy 51 10.6 48 8.9 89 89 SW 7 11 30.03 1017 10 16 0.00 0.00
6:52 am 06:52 Cloudy 50 10 48 8.9 93 93 S 8 13 30.01 1016 10 16 0.00 0.00
7:35 am 07:35 Cloudy 51 10.6 49 9.4 92 92 S 5 7 30.01 1016 9 14 0.00 0.00
7:47 am 07:47 Cloudy 54 12 52 11 94 94 SSW 7 11 30.01 1016 9 14 0.00 0.00
7:52 am 07:52 Cloudy 55 12.8 52 11.1 89 89 SSW 8 13 30.01 1016 9 14 0.00 0.00
8:52 am 08:52 Cloudy 54 12.2 52 11.1 93 93 S 9 15 30.00 1016 7 11 0.00 0.00
9:52 am 09:52 Cloudy 55 12.8 52 11.1 89 89 S 13 20 29.99 1016 9 14 0.00 0.00
10:05 am 10:05 Cloudy 55 12.8 52 11.1 89 89 S 13 20 29.99 1016 9 14 0.00 0.00
10:52 am 10:52 Cloudy 60 15.6 55 12.8 83 83 SSW 13 20 29.99 1016 9 14 0.01 0.13
11:52 am 11:52 Cloudy with Light Rain 60 15.6 54 12.2 80 80 S 10 17 29.97 1015 10 16 0.01 0.13
12:52 pm 12:52 Cloudy 60 15.6 54 12.2 80 80 S 13 20 29.93 1013 10 16 0.01 0.13
1:52 pm 13:52 Cloudy 65 18.3 56 13.3 73 73 S 16 26 29.88 1012 10 16 0.00 0.00
2:52 pm 14:52 Cloudy 67 19.4 56 13.3 68 68 SSW 18 30 29.85 1011 10 16 0.00 0.00
3:52 pm 15:52 Cloudy 68 20 56 13.3 65 65 SSW 16 26 29.83 1010 10 16 0.00 0.00
4:52 pm 16:52 Cloudy 68 20 56 13.3 65 65 S 16 26 29.82 1010 10 16 0.00 0.00
5:52 pm 17:52 Mostly Cloudy 68 20 57 13.9 68 68 SW 15 24 29.84 1011 10 16 0.00 0.00
6:52 pm 18:52 Mostly Cloudy 67 19.4 56 13.3 68 68 SSW 15 24 29.85 1011 10 16 0.00 0.00
7:52 pm 19:52 Mostly Cloudy 66 18.9 54 12.2 65 65 SSW 17 28 29.84 1010 10 16 0.00 0.00
8:52 pm 20:52 Mostly Cloudy 65 18.3 53 11.7 65 65 SSW 14 22 29.84 1011 10 16 0.00 0.00
9:52 pm 21:52 Mostly Cloudy 61 16.1 51 10.6 70 70 S 14 22 29.80 1009 10 16 0.00 0.00
10:52 pm 22:52 Mostly Cloudy 65 18.3 53 11.7 65 65 SSW 13 20 29.80 1009 10 16 0.00 0.00
11:52 pm 23:52 Cloudy 65 18.3 54 12.2 68 68 SW 14 22 29.83 1010 10 16 0.00 0.00

Powered by Vaisala Xweather